Weather History for Del Bajio, Mexico

Change the Weather History Date:

Saturday, November 10, 2012

  Actual Average Record
Temperature  
Mean Temperature 64 °F -  
Max Temperature 82 °F 78 °F 84 °F (2002)
Min Temperature 46 °F 47 °F 37 °F (1996)
Degree Days  
Heating Degree Days 1    
Growing Degree Days 14 (Base 50)    
Moisture  
Dew Point 40 °F    
Average Humidity 47    
Maximum Humidity 87    
Minimum Humidity 20    
Precipitation  
Precipitation 0.00 in - - ()
Sea Level Pressure  
Sea Level Pressure 30.09 in    
Wind  
Wind Speed 3 mph ()    
Max Wind Speed 8 mph    
Max Gust Speed -    
Visibility 8.9 miles    
Events      
Averages and records for this station are not official NWS values.
T = Trace of Precipitation, MM = Missing Value Source: Averaged Metar Reports

Daily Weather History Graph

Daily Weather History Graph

Search for Another Location

Airport:

Trip Planner

Search our weather history database for the weather conditions in past years. The results will help you decide how hot, cold, wet, or windy it might be!

Date:

Astronomy

Nov. 10, 2012 Rise Set
Actual Time 6:53 AM CST 6:05 PM CST
Civil Twilight 6:30 AM CST 6:29 PM CST
Nautical Twilight 6:03 AM CST 6:55 PM CST
Astronomical Twilight 5:37 AM CST 7:22 PM CST
Moon 3:25 AM CST (11/10) 3:33 PM CST (11/10)
Length of Visible Light 11h 58m
Length of Day
11h 12m
Waning Crescent, 14% of the Moon is Illuminated
Nov 10
Waning Crescent
Nov 13
New
Nov 20
First Quarter
Nov 28
Full
Dec 6
Last Quarter

Hourly Weather History & Observations

Time (CST) Temp. Dew Point Humidity Pressure Visibility Wind Dir Wind Speed Gust Speed Precip Events Conditions
12:40 AM 55.4 °F 41.0 °F 58% 30.24 in 8.0 mi ESE 6.9 mph - N/A   Clear
2:42 AM 51.8 °F 41.0 °F 67% 29.88 in 8.0 mi North 4.6 mph - N/A   Clear
3:42 AM 48.2 °F 42.8 °F 82% 30.21 in 8.0 mi NNE 8.1 mph - N/A   Clear
4:41 AM 48.2 °F 42.8 °F 82% 30.21 in 8.0 mi ENE 3.5 mph - N/A   Clear
5:40 AM 46.4 °F 42.8 °F 87% 29.93 in 8.0 mi Calm Calm - N/A   Clear
6:42 AM 46.4 °F 41.0 °F 81% 30.24 in 8.0 mi Calm Calm - N/A   Partly Cloudy
7:42 AM 50.0 °F 42.8 °F 76% 30.24 in 9.0 mi NE 3.5 mph - N/A   Clear
8:41 AM 60.8 °F 39.2 °F 45% 29.99 in 10.0 mi Calm Calm - N/A   Scattered Clouds
9:49 AM 68.0 °F 39.2 °F 35% 30.29 in 10.0 mi Calm Calm - N/A   Scattered Clouds
10:40 AM 71.6 °F 39.2 °F 31% 30.29 in 10.0 mi Calm Calm - N/A   Scattered Clouds
11:45 AM 75.2 °F 33.8 °F 22% 29.88 in 10.0 mi Calm Calm - N/A   Scattered Clouds
12:49 PM 78.8 °F 42.8 °F 28% 30.21 in 10.0 mi Calm Calm - N/A   Partly Cloudy
1:47 PM 80.6 °F 39.2 °F 23% 30.18 in 9.0 mi Calm Calm - N/A   Partly Cloudy
2:47 PM 82.4 °F 39.2 °F 21% 29.79 in 10.0 mi Calm Calm - N/A   Scattered Clouds
3:46 PM 80.6 °F 35.6 °F 20% 30.12 in 10.0 mi West 3.5 mph - N/A   Mostly Cloudy
4:43 PM 80.6 °F 35.6 °F 20% 30.12 in 10.0 mi WNW 3.5 mph - N/A   Mostly Cloudy
5:42 PM 73.4 °F 37.4 °F 27% 29.85 in 10.0 mi WSW 3.5 mph - N/A   Mostly Cloudy
6:44 PM 71.6 °F 33.8 °F 25% 30.12 in 8.0 mi Calm Calm - N/A   Mostly Cloudy
7:44 PM 64.4 °F 41.0 °F 42% 30.15 in 8.0 mi NE 8.1 mph - N/A   Mostly Cloudy
8:42 PM 60.8 °F 39.2 °F 45% 29.89 in 8.0 mi North 4.6 mph - N/A   Scattered Clouds
9:43 PM 59.0 °F 39.2 °F 48% 30.19 in 8.0 mi NE 4.6 mph - N/A   Scattered Clouds
10:42 PM 57.2 °F 39.2 °F 51% 30.20 in 8.0 mi Calm Calm - N/A   Scattered Clouds
11:50 PM 55.4 °F 41.0 °F 58% 29.89 in 8.0 mi Calm Calm - N/A   Clear